Location: Arcueil
(48.7999°N, 2.3326°E)
Time: 03:03:43
(UTC+00:00)

ISS - Visible Passes

Search period start: 17 March 2026 00:00
Search period end: 27 March 2026 00:00
Orbit: 417 x 426 km, 51.6° (Epoch: 16 March)

Date Brightness Start Highest point End Pass type
(mag) Time Alt. Az. Time Alt. Az. Time Alt. Az.
17 Mar -3.6 18:51:09 10° WSW 18:54:33 74° NNW 18:57:38 12° ENE visible
17 Mar -2.2 20:28:19 10° WNW 20:30:39 36° NW 20:30:39 36° NW visible
18 Mar -3.1 19:41:25 10° W 19:44:45 50° N 19:45:45 36° NE visible
18 Mar -0.4 21:18:26 10° WNW 21:18:45 12° WNW 21:18:45 12° WNW visible
19 Mar -3.2 18:54:29 10° W 18:57:50 53° N 19:00:49 12° ENE visible
19 Mar -2.2 20:31:34 10° WNW 20:33:49 37° NW 20:33:49 37° NW visible
20 Mar -3.3 19:44:40 10° WNW 19:48:02 55° N 19:48:50 42° ENE visible
20 Mar -0.4 21:21:36 10° WNW 21:21:51 12° WNW 21:21:51 12° WNW visible
21 Mar -3.1 18:57:45 10° WNW 19:01:05 51° N 19:03:51 14° ENE visible
21 Mar -2.2 20:34:40 10° WNW 20:36:51 36° WNW 20:36:51 36° WNW visible
22 Mar -3.8 19:47:46 10° WNW 19:51:11 80° NNE 19:51:51 54° E visible
23 Mar -3.5 19:00:50 10° WNW 19:04:13 65° NNE 19:06:50 16° E visible
23 Mar -1.9 20:37:48 10° WNW 20:39:51 28° WSW 20:39:51 28° WSW visible
24 Mar -3.3 19:50:47 10° WNW 19:54:07 54° SSW 19:54:51 43° SSE visible
25 Mar -3.7 19:03:48 10° WNW 19:07:12 76° SSW 19:09:54 15° ESE visible
25 Mar -1.2 20:41:21 10° W 20:42:54 16° WSW 20:42:54 16° WSW visible
26 Mar -2.0 19:53:59 10° W 19:56:49 25° SW 19:57:59 20° S visible
